GLD1793 RPVE-RPVB

Flight info

Callsign GLD1793
Flight time 0h 41m
Altitude 5000
Route KLO8A KLO TR8 GALIA GALI3P
Aircraft BE58/M-SDFGIRY/S

Departure

Time 2026-05-07 19:11
Airport Godofredo P. Ramos Airport (RPVE)

Arrival

Time 2026-05-07 19:52
Airport Bacolod-Silay International Airport (RPVB)
Time Latitude Longitude Altitude Speed Heading
2026-05-07 18:53 11.92662 121.96419 22 ft 0 kts 153°
2026-05-07 19:03 11.92662 121.96420 22 ft 0 kts 153°
2026-05-07 19:04 11.92659 121.96424 22 ft 1 kts 97°
2026-05-07 19:04 11.92671 121.96426 28 ft 5 kts 318°
2026-05-07 19:04 11.92696 121.96368 21 ft 14 kts 272°
2026-05-07 19:04 11.92661 121.96281 19 ft 12 kts 244°
2026-05-07 19:05 11.92646 121.96206 18 ft 10 kts 306°
2026-05-07 19:05 11.92697 121.96173 19 ft 7 kts 334°
2026-05-07 19:05 11.92728 121.96158 18 ft 0 kts 333°
2026-05-07 19:09 11.92729 121.96157 18 ft 2 kts 333°
2026-05-07 19:09 11.92744 121.96149 17 ft 5 kts 332°
2026-05-07 19:09 11.92792 121.96122 17 ft 8 kts 331°
2026-05-07 19:10 11.92819 121.96125 17 ft 0 kts 59°
2026-05-07 19:10 11.92825 121.96136 18 ft 16 kts 61°
2026-05-07 19:10 11.93005 121.96498 58 ft 86 kts 64°
2026-05-07 19:10 11.93329 121.97082 272 ft 110 kts 59°
2026-05-07 19:11 11.93787 121.97830 312 ft 133 kts 59°
2026-05-07 19:11 11.94250 121.98688 444 ft 142 kts 65°
2026-05-07 19:11 11.94638 121.99642 548 ft 148 kts 66°
2026-05-07 19:11 11.95084 122.00620 626 ft 159 kts 64°
2026-05-07 19:12 11.95585 122.01670 709 ft 169 kts 67°
2026-05-07 19:12 11.95719 122.02876 837 ft 174 kts 96°
2026-05-07 19:12 11.95278 122.04035 1015 ft 180 kts 122°
2026-05-07 19:12 11.94491 122.05035 1213 ft 180 kts 124°
2026-05-07 19:13 11.93717 122.06020 1368 ft 180 kts 124°
2026-05-07 19:13 11.92932 122.07022 1509 ft 181 kts 125°
2026-05-07 19:13 11.92146 122.08024 1654 ft 181 kts 126°
2026-05-07 19:13 11.91357 122.09031 1781 ft 182 kts 125°
2026-05-07 19:14 11.90567 122.10040 1907 ft 182 kts 126°
2026-05-07 19:14 11.89777 122.11045 2022 ft 180 kts 126°
2026-05-07 19:14 11.88995 122.12042 2140 ft 180 kts 125°
2026-05-07 19:14 11.88216 122.13036 2259 ft 179 kts 125°
2026-05-07 19:15 11.87440 122.14026 2379 ft 179 kts 125°
2026-05-07 19:15 11.86659 122.15022 2530 ft 179 kts 124°
2026-05-07 19:15 11.85877 122.16018 2684 ft 179 kts 124°
2026-05-07 19:15 11.85097 122.17011 2819 ft 179 kts 124°
2026-05-07 19:16 11.84581 122.17669 2909 ft 179 kts 124°
2026-05-07 19:16 11.83553 122.18980 3074 ft 178 kts 124°
2026-05-07 19:16 11.82778 122.19966 3197 ft 177 kts 124°
2026-05-07 19:16 11.82008 122.20946 3341 ft 176 kts 124°
2026-05-07 19:17 11.81504 122.21590 3442 ft 175 kts 124°
2026-05-07 19:17 11.80741 122.22563 3600 ft 175 kts 124°
2026-05-07 19:17 11.79983 122.23527 3750 ft 174 kts 124°
2026-05-07 19:17 11.79223 122.24495 3884 ft 174 kts 124°
2026-05-07 19:18 11.78465 122.25461 4022 ft 174 kts 124°
2026-05-07 19:18 11.77708 122.26426 4153 ft 173 kts 123°
2026-05-07 19:18 11.76964 122.27371 4277 ft 171 kts 123°
2026-05-07 19:18 11.76224 122.28313 4390 ft 170 kts 122°
2026-05-07 19:19 11.75482 122.29258 4517 ft 171 kts 122°
2026-05-07 19:19 11.74743 122.30200 4649 ft 170 kts 123°
2026-05-07 19:19 11.74001 122.31142 4779 ft 169 kts 122°
2026-05-07 19:19 11.73278 122.32064 4914 ft 168 kts 122°
2026-05-07 19:20 11.72550 122.32991 5025 ft 167 kts 123°
2026-05-07 19:20 11.71816 122.33925 5041 ft 171 kts 123°
2026-05-07 19:20 11.71065 122.34881 5044 ft 174 kts 124°
2026-05-07 19:20 11.70298 122.35857 5046 ft 178 kts 124°
2026-05-07 19:21 11.69521 122.36844 5049 ft 179 kts 124°
2026-05-07 19:21 11.68736 122.37842 5052 ft 181 kts 124°
2026-05-07 19:21 11.67809 122.38729 5052 ft 186 kts 141°
2026-05-07 19:21 11.66733 122.39464 5053 ft 186 kts 140°
2026-05-07 19:22 11.65669 122.40215 5055 ft 186 kts 140°
2026-05-07 19:22 11.64602 122.40969 5057 ft 187 kts 140°
2026-05-07 19:22 11.63529 122.41726 5057 ft 187 kts 140°
2026-05-07 19:22 11.62458 122.42480 5057 ft 187 kts 140°
2026-05-07 19:23 11.61391 122.43230 5058 ft 187 kts 140°
2026-05-07 19:23 11.60312 122.43991 5056 ft 188 kts 141°
2026-05-07 19:23 11.59228 122.44754 5058 ft 190 kts 141°
2026-05-07 19:23 11.58151 122.45512 5056 ft 191 kts 141°
2026-05-07 19:24 11.57058 122.46280 5058 ft 191 kts 141°
2026-05-07 19:24 11.55963 122.47051 5059 ft 191 kts 141°
2026-05-07 19:24 11.54866 122.47823 5058 ft 191 kts 141°
2026-05-07 19:24 11.53766 122.48596 5058 ft 192 kts 141°
2026-05-07 19:25 11.52682 122.49359 5059 ft 192 kts 141°
2026-05-07 19:25 11.51578 122.50136 5057 ft 193 kts 141°
2026-05-07 19:25 11.50482 122.50907 5057 ft 193 kts 141°
2026-05-07 19:25 11.49371 122.51688 5053 ft 193 kts 141°
2026-05-07 19:26 11.48265 122.52465 5051 ft 192 kts 141°
2026-05-07 19:26 11.47165 122.53240 5050 ft 191 kts 141°
2026-05-07 19:26 11.46074 122.54005 5049 ft 189 kts 141°
2026-05-07 19:26 11.44994 122.54764 5046 ft 188 kts 141°
2026-05-07 19:27 11.43919 122.55520 5045 ft 187 kts 141°
2026-05-07 19:27 11.42862 122.56263 5049 ft 186 kts 140°
2026-05-07 19:27 11.41798 122.57011 5045 ft 185 kts 140°
2026-05-07 19:27 11.40743 122.57753 5043 ft 184 kts 141°
2026-05-07 19:28 11.39692 122.58490 5040 ft 182 kts 141°
2026-05-07 19:28 11.38653 122.59221 5039 ft 181 kts 140°
2026-05-07 19:28 11.37611 122.59954 5037 ft 181 kts 140°
2026-05-07 19:28 11.36577 122.60679 5037 ft 181 kts 140°
2026-05-07 19:29 11.35541 122.61407 5037 ft 181 kts 140°
2026-05-07 19:29 11.34505 122.62136 5030 ft 181 kts 140°
2026-05-07 19:29 11.33475 122.62859 5030 ft 180 kts 139°
2026-05-07 19:29 11.32440 122.63585 5029 ft 179 kts 140°
2026-05-07 19:30 11.31427 122.64296 5027 ft 179 kts 140°
2026-05-07 19:30 11.30386 122.65024 5027 ft 179 kts 142°
2026-05-07 19:30 11.29206 122.65485 5024 ft 186 kts 161°
2026-05-07 19:30 11.27964 122.65784 5023 ft 186 kts 160°
2026-05-07 19:31 11.26713 122.66104 5024 ft 185 kts 161°
2026-05-07 19:31 11.25464 122.66423 5023 ft 186 kts 160°
2026-05-07 19:31 11.24208 122.66740 5023 ft 186 kts 160°
2026-05-07 19:31 11.22951 122.67057 5025 ft 186 kts 159°
2026-05-07 19:32 11.21695 122.67375 5024 ft 186 kts 160°
2026-05-07 19:32 11.20438 122.67693 5026 ft 186 kts 160°
2026-05-07 19:32 11.19168 122.68015 5030 ft 188 kts 160°
2026-05-07 19:32 11.17896 122.68336 5030 ft 189 kts 160°
2026-05-07 19:33 11.16618 122.68659 5021 ft 189 kts 160°
2026-05-07 19:33 11.15334 122.68986 5019 ft 191 kts 160°
2026-05-07 19:33 11.14030 122.69317 5021 ft 194 kts 160°
2026-05-07 19:33 11.12719 122.69647 5023 ft 194 kts 160°
2026-05-07 19:34 11.11405 122.69979 5024 ft 195 kts 160°
2026-05-07 19:34 11.10091 122.70310 5030 ft 194 kts 160°
2026-05-07 19:34 11.08780 122.70642 5031 ft 194 kts 160°
2026-05-07 19:34 11.07471 122.70972 5031 ft 194 kts 160°
2026-05-07 19:35 11.06177 122.71301 5032 ft 194 kts 160°
2026-05-07 19:35 11.04864 122.71632 5029 ft 194 kts 160°
2026-05-07 19:35 11.03580 122.71956 5025 ft 194 kts 160°
2026-05-07 19:35 11.02244 122.72294 5025 ft 196 kts 160°
2026-05-07 19:36 11.00931 122.72625 5026 ft 198 kts 160°
2026-05-07 19:36 10.99593 122.72963 5021 ft 199 kts 160°
2026-05-07 19:36 10.98247 122.73303 5022 ft 200 kts 160°
2026-05-07 19:36 10.96894 122.73644 5020 ft 200 kts 160°
2026-05-07 19:37 10.95545 122.73988 5020 ft 200 kts 160°
2026-05-07 19:37 10.94196 122.74330 5018 ft 200 kts 160°
2026-05-07 19:37 10.92851 122.74672 5017 ft 198 kts 160°
2026-05-07 19:37 10.91515 122.75012 5007 ft 198 kts 161°
2026-05-07 19:38 10.90182 122.75350 5006 ft 197 kts 161°
2026-05-07 19:38 10.88849 122.75690 5010 ft 197 kts 161°
2026-05-07 19:38 10.87514 122.76028 5010 ft 197 kts 161°
2026-05-07 19:38 10.86184 122.76365 5011 ft 196 kts 160°
2026-05-07 19:39 10.84859 122.76701 5013 ft 196 kts 160°
2026-05-07 19:39 10.83534 122.77038 5010 ft 196 kts 160°
2026-05-07 19:39 10.82226 122.77370 5010 ft 196 kts 160°
2026-05-07 19:39 10.80902 122.77706 5008 ft 195 kts 160°
2026-05-07 19:40 10.79600 122.78036 5005 ft 193 kts 160°
2026-05-07 19:40 10.78304 122.78365 5002 ft 189 kts 160°
2026-05-07 19:40 10.77035 122.78686 5000 ft 186 kts 159°
2026-05-07 19:40 10.75777 122.79007 4897 ft 189 kts 159°
2026-05-07 19:41 10.74469 122.79341 4649 ft 198 kts 160°
2026-05-07 19:41 10.73102 122.79688 4379 ft 205 kts 160°
2026-05-07 19:41 10.71696 122.80042 4100 ft 211 kts 161°
2026-05-07 19:41 10.70256 122.80407 3816 ft 216 kts 161°
2026-05-07 19:42 10.68786 122.80780 3528 ft 219 kts 162°
2026-05-07 19:42 10.67314 122.81153 3239 ft 222 kts 162°
2026-05-07 19:42 10.65799 122.81537 3002 ft 221 kts 161°
2026-05-07 19:42 10.64527 122.82242 2986 ft 201 kts 129°
2026-05-07 19:43 10.63978 122.83458 2988 ft 186 kts 97°
2026-05-07 19:43 10.63454 122.84621 2990 ft 187 kts 127°
2026-05-07 19:43 10.62531 122.85552 2952 ft 187 kts 133°
2026-05-07 19:43 10.61591 122.86463 2947 ft 185 kts 131°
2026-05-07 19:44 10.60655 122.87353 2944 ft 183 kts 132°
2026-05-07 19:44 10.59724 122.88230 2945 ft 182 kts 131°
2026-05-07 19:44 10.58795 122.89102 2941 ft 181 kts 133°
2026-05-07 19:44 10.57933 122.90021 2871 ft 181 kts 121°
2026-05-07 19:45 10.57662 122.91267 2744 ft 187 kts 82°
2026-05-07 19:45 10.58052 122.92532 2641 ft 191 kts 72°
2026-05-07 19:45 10.58488 122.93816 2525 ft 192 kts 72°
2026-05-07 19:45 10.59098 122.95014 2418 ft 196 kts 47°
2026-05-07 19:46 10.60303 122.95666 2307 ft 201 kts 18°
2026-05-07 19:46 10.61670 122.95997 2202 ft 201 kts 14°
2026-05-07 19:46 10.63041 122.96317 2098 ft 203 kts 14°
2026-05-07 19:46 10.64424 122.96641 2016 ft 202 kts 13°
2026-05-07 19:47 10.65793 122.96875 2010 ft 195 kts
2026-05-07 19:47 10.67127 122.96809 2006 ft 190 kts 352°
2026-05-07 19:47 10.68417 122.96580 1951 ft 188 kts 360°
2026-05-07 19:47 10.69645 122.96966 1759 ft 190 kts 34°
2026-05-07 19:48 10.70733 122.97750 1510 ft 197 kts 34°
2026-05-07 19:48 10.71896 122.98525 1229 ft 203 kts 31°
2026-05-07 19:48 10.73137 122.99274 948 ft 210 kts 30°
2026-05-07 19:48 10.74408 123.00004 655 ft 209 kts 30°
2026-05-07 19:49 10.75665 123.00750 385 ft 210 kts 32°
2026-05-07 19:49 10.76929 123.01484 165 ft 201 kts 30°
2026-05-07 19:49 10.78006 123.02085 224 ft 150 kts 29°
2026-05-07 19:49 10.78780 123.02654 441 ft 139 kts 64°
2026-05-07 19:50 10.78364 123.03493 599 ft 160 kts 154°
2026-05-07 19:50 10.77247 123.03465 710 ft 178 kts 204°
2026-05-07 19:50 10.76149 123.02781 580 ft 186 kts 211°
2026-05-07 19:50 10.75144 123.02090 575 ft 159 kts 227°
2026-05-07 19:51 10.74788 123.01135 561 ft 140 kts 269°
2026-05-07 19:51 10.75102 123.00216 565 ft 138 kts 310°
2026-05-07 19:51 10.75787 123.00152 599 ft 107 kts 58°
2026-05-07 19:51 10.76171 123.00872 299 ft 118 kts 49°
2026-05-07 19:52 10.76774 123.01374 146 ft 101 kts 36°
2026-05-07 19:52 10.77312 123.01702 82 ft 80 kts 28°
2026-05-07 19:52 10.77734 123.01951 84 ft 53 kts 28°
2026-05-07 19:52 10.77900 123.02059 85 ft 13 kts
2026-05-07 19:53 10.77866 123.02018 86 ft 11 kts 209°
2026-05-07 19:53 10.77787 123.01973 87 ft 16 kts 209°
2026-05-07 19:53 10.77690 123.01890 82 ft 16 kts 271°
2026-05-07 19:53 10.77741 123.01782 83 ft 17 kts 301°
2026-05-07 19:54 10.77755 123.01741 81 ft 0 kts 249°
2026-05-07 19:54 10.77735 123.01699 82 ft 17 kts 235°
2026-05-07 19:54 10.77679 123.01648 82 ft 11 kts 266°
2026-05-07 19:54 10.77702 123.01626 81 ft 0 kts 11°